Temp
-7 -7 -7 -7 -7 -6 -7 -7 -7 -6 -6 -7 -7 -7 -6 -5 -4 -5 -5 -6 -5 -6 -6 -6 -6 -7 -7 -7 -7 -7 -7 -7 -7 -6 -6 -6 -6 -6 -6 -6 -6 -5 -6 -6 -6 -5 -5 -5 -5
-6 -7 -6 -6 -6 -6 -6 -7 -7 -6 -6 -5 -5 -5 -5 -6 -6 -5 -5 -6 -5 -6 -6 -6 -6 -6 -7 -7 -7 -7 -8 -8 -8 -7 -7 -7 -7 -7 -7 -6 -6 -6 -5 -6 -6 -6 -6 -5 -5
-7 -7 -7 -7 -7 -7 -7 -7 -6 -7 -7 -6 -5 -5 -6 -5 -5 -5 -5 -6 -5 -6 -6 -6 -6 -7 -7 -7 -7 -7 -7 -8 -8 -8 -7 -7 -7 -7 -7 -7 -6 -6 -6 -6 -6 -6 -6 -6 -5
-6 -6 -7 -7 -7 -7 -8 -7 -6 -7 -7 -6 -5 -5 -5 -5 -5 -5 -5 -5 -5 -5 -6 -6 -6 -7 -7 -7 -7 -7 -7 -7 -8 -8 -8 -8 -8 -8 -7 -7 -7 -6 -6 -6 -6 -6 -6 -6 -6
-6 -6 -7 -7 -6 -7 -8 -8 -7 -6 -7 -6 -7 -6 -5 -4 -5 -5 -5 -5 -5 -6 -6 -7 -7 -7 -7 -7 -7 -7 -8 -8 -8 -8 -8 -8 -8 -8 -8 -7 -7 -7 -7 -7 -6 -6 -7 -6 -6
-7 -7 -7 -7 -7 -6 -7 -6 -8 -8 -8 -7 -7 -6 -6 -5 -5 -5 -6 -5 -6 -6 -6 -7 -7 -7 -7 -7 -7 -7 -8 -8 -8 -8 -8 -8 -8 -8 -8 -7 -7 -7 -7 -7 -7 -7 -6 -7 -6
-6 -6 -6 -7 -6 -6 -7 -6 -8 -7 -7 -7 -6 -7 -6 -6 -5 -5 -6 -6 -6 -6 -6 -6 -7 -7 -7 -7 -7 -7 -7 -7 -8 -8 -8 -8 -8 -8 -8 -8 -7 -7 -7 -8 -8 -7 -7 -7 -7
-7 -7 -6 -6 -6 -6 -7 -7 -8 -8 -7 -7 -7 -7 -6 -6 -6 -5 -5 -6 -6 -6 -6 -6 -7 -7 -8 -8 -8 -8 -7 -7 -8 -8 -8 -8 -8 -8 -8 -8 -8 -7 -7 -8 -8 -8 -7 -7 -7
-7 -6 -8 -8 -8 -8 -7 -8 -6 -7 -7 -7 -8 -7 -6 -6 -6 -6 -6 -5 -6 -6 -6 -7 -7 -7 -7 -8 -8 -8 -8 -7 -7 -7 -8 -8 -8 -8 -8 -8 -8 -8 -7 -8 -8 -8 -8 -7 -7
-7 -6 -7 -8 -8 -8 -8 -7 -6 -7 -7 -8 -8 -8 -8 -7 -7 -7 -7 -6 -6 -6 -6 -7 -7 -7 -7 -8 -8 -8 -8 -8 -7 -7 -8 -8 -8 -8 -8 -8 -8 -8 -8 -8 -8 -8 -8 -8 -7
-7 -6 -7 -7 -8 -9 -8 -7 -7 -8 -8 -8 -9 -9 -8 -8 -8 -8 -7 -7 -7 -7 -7 -6 -6 -7 -8 -8 -8 -8 -8 -8 -8 -8 -8 -8 -8 -8 -9 -9 -9 -8 -8 -8 -8 -8 -8 -8 -7
-7 -6 -6 -8 -9 -8 -8 -8 -7 -8 -8 -7 -8 -9 -9 -8 -8 -8 -8 -8 -8 -8 -7 -7 -7 -7 -7 -7 -7 -8 -7 -8 -8 -7 -8 -8 -8 -8 -8 -8 -8 -8 -9 -8 -8 -8 -8 -8 -8
-7 -6 -6 -7 -8 -8 -7 -9 -9 -9 -8 -8 -8 -9 -9 -9 -9 -8 -8 -8 -8 -8 -7 -7 -7 -7 -7 -7 -8 -8 -7 -7 -8 -8 -8 -7 -8 -8 -8 -8 -8 -8 -9 -9 -8 -8 -8 -8 -8
-6 -6 -6 -6 -7 -8 -7 -9 -8 -8 -8 -8 -9 -9 -9 -9 -9 -9 -9 -9 -8 -8 -8 -7 -7 -7 -8 -8 -8 -8 -8 -7 -7 -7 -7 -7 -8 -8 -8 -8 -8 -9 -9 -9 -8 -8 -8 -8 -8
-7 -7 -7 -6 -6 -6 -6 -8 -7 -9 -9 -9 -8 -9 -9 -9 -9 -10 -9 -9 -8 -8 -8 -8 -7 -7 -7 -8 -8 -8 -8 -8 -8 -8 -8 -7 -7 -8 -8 -8 -8 -8 -8 -9 -8 -8 -8 -9 -8
-6 -6 -7 -7 -7 -6 -6 -7 -7 -9 -8 -9 -8 -8 -9 -9 -9 -10 -10 -9 -8 -8 -8 -8 -8 -8 -8 -8 -8 -8 -8 -8 -8 -8 -8 -8 -8 -8 -8 -8 -9 -8 -8 -8 -8 -8 -8 -9 -9
-6 -6 -6 -6 -6 -7 -7 -8 -9 -9 -9 -8 -8 -9 -9 -7 -8 -9 -11 -10 -9 -8 -9 -9 -8 -8 -8 -8 -8 -8 -8 -9 -9 -8 -8 -8 -8 -8 -8 -8 -8 -8 -8 -8 -8 -9 -8 -8 -8
-6 -6 -6 -6 -6 -6 -6 -8 -8 -8 -8 -8 -9 -8 -8 -8 -9 -9 -8 -10 -9 -9 -8 -9 -8 -8 -9 -9 -8 -8 -8 -8 -8 -8 -8 -9 -8 -8 -8 -8 -8 -8 -8 -8 -8 -9 -9 -8 -9
-6 -6 -6 -6 -6 -6 -7 -8 -8 -8 -9 -9 -9 -9 -8 -9 -9 -9 -8 -6 -8 -9 -9 -8 -8 -8 -9 -9 -9 -9 -8 -8 -8 -8 -8 -9 -9 -8 -7 -8 -8 -8 -8 -8 -8 -8 -8 -8 -8
-6 -7 -6 -6 -7 -6 -7 -8 -7 -8 -9 -9 -9 -9 -9 -8 -8 -9 -8 -7 -8 -9 -7 -7 -7 -8 -9 -9 -9 -9 -8 -8 -8 -8 -8 -8 -8 -8 -7 -7 -8 -8 -8 -8 -8 -8 -8 -9 -8
-6 -6 -7 -7 -7 -7 -7 -8 -7 -8 -9 -9 -9 -9 -9 -9 -9 -9 -7 -7 -9 -8 -7 -7 -7 -7 -8 -9 -9 -8 -8 -7 -7 -8 -8 -8 -8 -8 -7 -7 -8 -8 -8 -8 -8 -8 -9 -9 -9
-6 -7 -7 -7 -7 -7 -7 -7 -9 -8 -9 -9 -9 -9 -8 -9 -8 -7 -7 -7 -8 -8 -8 -7 -7 -8 -8 -9 -9 -8 -8 -7 -7 -7 -8 -8 -8 -7 -7 -7 -7 -8 -8 -8 -8 -8 -8 -8 -8
-6 -7 -7 -7 -7 -7 -8 -8 -8 -8 -9 -9 -9 -9 -9 -8 -8 -8 -7 -7 -7 -8 -8 -8 -8 -8 -8 -9 -8 -8 -8 -8 -7 -7 -8 -8 -8 -8 -7 -7 -7 -8 -8 -8 -8 -8 -8 -8 -8
-7 -7 -7 -7 -7 -7 -9 -9 -8 -9 -9 -9 -9 -8 -9 -9 -8 -8 -7 -8 -8 -8 -8 -8 -8 -8 -8 -8 -8 -8 -8 -7 -7 -8 -8 -8 -8 -8 -8 -8 -8 -8 -8 -8 -7 -8 -8 -8 -8
-7 -7 -7 -7 -7 -8 -9 -8 -8 -9 -9 -8 -8 -9 -9 -9 -8 -8 -8 -8 -9 -8 -8 -8 -8 -7 -7 -8 -7 -8 -8 -8 -7 -8 -8 -8 -8 -8 -8 -8 -8 -8 -8 -7 -7 -8 -8 -8 -8
-8 -7 -7 -7 -7 -8 -8 -8 -7 -8 -9 -8 -9 -9 -8 -9 -8 -9 -9 -9 -9 -9 -8 -8 -8 -8 -8 -8 -8 -8 -8 -7 -7 -8 -8 -8 -8 -8 -8 -8 -8 -8 -8 -7 -8 -8 -8 -8 -8
-9 -8 -8 -8 -8 -7 -8 -7 -8 -8 -9 -9 -9 -9 -10 -10 -9 -9 -9 -9 -9 -9 -8 -8 -8 -8 -8 -9 -8 -8 -8 -8 -7 -7 -8 -8 -8 -8 -8 -8 -8 -8 -8 -8 -8 -8 -8 -8 -8
-7 -9 -9 -8 -8 -8 -8 -8 -8 -9 -9 -9 -9 -8 -8 -10 -10 -9 -9 -10 -9 -9 -9 -9 -8 -8 -8 -8 -8 -8 -8 -8 -8 -7 -7 -7 -8 -8 -9 -8 -8 -8 -8 -8 -8 -8 -8 -8 -8
-9 -9 -9 -9 -9 -8 -8 -9 -9 -9 -10 -9 -9 -9 -9 -10 -9 -9 -10 -10 -8 -8 -9 -9 -9 -8 -8 -8 -8 -7 -7 -8 -8 -8 -8 -8 -8 -8 -8 -8 -8 -8 -8 -8 -8 -8 -8 -8 -8
-9 -9 -10 -9 -9 -9 -9 -9 -9 -9 -10 -10 -10 -9 -8 -9 -9 -9 -10 -10 -9 -9 -8 -9 -9 -10 -9 -9 -9 -8 -8 -8 -8 -8 -8 -7 -8 -8 -8 -8 -8 -8 -9 -8 -8 -8 -8 -8 -8
Height
5915 5916 5915 5913 5914 5910 5907 5906 5907 5912 5911 5906 5906 5903 5902 5901 5901 5900 5897 5896 5897 5895 5896 5898 5898 5900 5901 5903 5904 5905 5906 5907 5906 5907 5907 5908 5907 5908 5908 5908 5909 5908 5910 5912 5911 5913 5914 5915 5916
5916 5916 5916 5914 5915 5911 5907 5905 5908 5912 5914 5909 5904 5903 5902 5902 5902 5898 5896 5897 5896 5895 5896 5897 5898 5898 5900 5902 5904 5905 5905 5905 5905 5905 5906 5907 5906 5908 5908 5908 5908 5908 5908 5910 5911 5912 5914 5914 5916
5916 5915 5916 5915 5915 5914 5908 5908 5907 5910 5912 5915 5911 5907 5904 5905 5905 5900 5899 5898 5895 5895 5896 5897 5897 5898 5900 5902 5903 5903 5904 5904 5903 5903 5904 5905 5905 5906 5906 5906 5907 5907 5907 5908 5910 5912 5913 5914 5916
5917 5917 5916 5916 5914 5916 5911 5912 5910 5906 5915 5916 5913 5908 5905 5905 5902 5900 5896 5897 5897 5895 5896 5897 5897 5898 5900 5900 5901 5902 5902 5902 5902 5902 5903 5904 5903 5904 5905 5905 5905 5905 5906 5906 5907 5911 5913 5913 5915
5919 5917 5916 5917 5916 5913 5914 5912 5904 5911 5914 5915 5912 5909 5908 5905 5900 5899 5895 5897 5895 5895 5895 5896 5894 5896 5898 5898 5898 5899 5899 5899 5899 5899 5899 5901 5901 5902 5903 5904 5904 5904 5905 5906 5907 5908 5912 5912 5914
5919 5921 5921 5918 5917 5917 5914 5911 5911 5911 5916 5913 5912 5909 5906 5906 5902 5898 5894 5893 5893 5893 5894 5894 5893 5895 5895 5895 5895 5896 5896 5897 5896 5897 5897 5898 5898 5899 5901 5902 5903 5903 5904 5904 5905 5906 5910 5912 5914
5921 5921 5921 5921 5920 5913 5912 5911 5911 5912 5914 5913 5912 5909 5906 5904 5901 5897 5895 5893 5891 5893 5892 5891 5892 5893 5893 5893 5895 5895 5894 5894 5894 5895 5895 5895 5896 5897 5898 5900 5902 5903 5902 5902 5903 5905 5908 5911 5912
5920 5921 5920 5920 5919 5910 5914 5912 5912 5915 5918 5915 5910 5909 5907 5905 5902 5897 5895 5895 5893 5891 5889 5889 5890 5891 5890 5890 5892 5892 5892 5891 5891 5892 5893 5893 5894 5895 5897 5898 5899 5901 5900 5901 5902 5903 5905 5909 5911
5919 5919 5918 5918 5917 5913 5913 5916 5916 5915 5915 5912 5909 5906 5906 5904 5902 5898 5896 5894 5892 5889 5888 5889 5888 5888 5887 5887 5888 5889 5889 5889 5890 5891 5892 5892 5892 5893 5893 5894 5895 5897 5899 5899 5900 5902 5904 5906 5908
5919 5918 5916 5917 5917 5918 5916 5916 5910 5910 5914 5912 5910 5908 5905 5902 5900 5897 5894 5891 5889 5888 5887 5885 5886 5886 5886 5886 5885 5885 5887 5887 5888 5890 5891 5891 5891 5891 5892 5892 5892 5893 5895 5897 5897 5899 5902 5905 5906
5920 5919 5916 5916 5917 5919 5918 5918 5915 5914 5914 5913 5910 5907 5904 5900 5899 5896 5894 5890 5888 5886 5886 5886 5885 5883 5882 5882 5881 5883 5884 5885 5886 5886 5888 5889 5890 5890 5890 5890 5890 5889 5891 5894 5895 5896 5899 5902 5904
5920 5919 5916 5915 5915 5916 5916 5915 5914 5913 5914 5913 5912 5908 5904 5901 5897 5894 5892 5889 5888 5886 5885 5884 5883 5880 5878 5878 5879 5880 5881 5882 5883 5883 5884 5885 5887 5888 5887 5887 5885 5881 5885 5889 5891 5894 5896 5899 5901
5920 5920 5914 5911 5910 5911 5912 5912 5913 5911 5912 5913 5911 5908 5906 5901 5898 5893 5889 5887 5886 5886 5884 5883 5881 5878 5876 5877 5877 5878 5878 5879 5878 5878 5879 5880 5881 5881 5883 5884 5883 5882 5881 5884 5887 5890 5892 5895 5898
5916 5917 5914 5913 5911 5911 5912 5909 5911 5909 5911 5911 5908 5904 5899 5898 5898 5893 5889 5887 5884 5883 5882 5883 5880 5877 5875 5875 5876 5876 5876 5875 5874 5875 5875 5876 5877 5878 5880 5879 5880 5881 5879 5879 5883 5886 5889 5892 5893
5917 5917 5915 5917 5914 5912 5913 5913 5908 5908 5909 5906 5906 5901 5892 5894 5887 5893 5889 5885 5884 5881 5878 5882 5880 5878 5878 5876 5874 5874 5873 5872 5871 5871 5871 5870 5871 5873 5875 5875 5875 5876 5877 5876 5878 5882 5884 5888 5888
5916 5915 5917 5917 5916 5910 5912 5912 5904 5904 5905 5903 5903 5899 5895 5884 5885 5883 5885 5883 5885 5883 5880 5878 5878 5876 5875 5873 5873 5873 5871 5870 5868 5868 5867 5866 5867 5867 5868 5869 5870 5871 5872 5873 5872 5874 5877 5884 5886
5913 5913 5915 5916 5912 5910 5911 5909 5900 5900 5902 5903 5898 5890 5883 5872 5875 5874 5880 5881 5884 5882 5875 5875 5875 5873 5872 5872 5871 5869 5868 5866 5864 5863 5861 5860 5860 5861 5861 5862 5863 5865 5866 5866 5867 5868 5873 5877 5881
5909 5909 5912 5912 5912 5910 5909 5909 5908 5894 5899 5899 5899 5892 5883 5883 5879 5875 5878 5876 5878 5877 5872 5870 5870 5869 5868 5868 5868 5865 5865 5864 5862 5858 5855 5852 5851 5852 5854 5855 5857 5859 5860 5861 5862 5865 5868 5871 5876
5908 5904 5905 5908 5908 5907 5906 5905 5906 5901 5895 5897 5896 5889 5884 5883 5878 5877 5870 5848 5870 5871 5868 5866 5866 5866 5866 5863 5863 5861 5858 5854 5851 5849 5845 5842 5840 5840 5844 5847 5850 5853 5854 5856 5858 5861 5864 5866 5871
5906 5905 5902 5903 5902 5903 5903 5902 5898 5897 5899 5898 5898 5892 5884 5881 5878 5877 5864 5860 5866 5868 5864 5866 5867 5866 5864 5861 5860 5857 5852 5848 5843 5838 5835 5832 5833 5833 5836 5840 5843 5845 5847 5851 5853 5856 5857 5861 5865
5902 5902 5900 5899 5899 5898 5899 5899 5895 5890 5896 5895 5894 5892 5890 5886 5882 5877 5872 5862 5867 5865 5863 5863 5862 5863 5861 5856 5857 5853 5848 5842 5834 5831 5828 5828 5828 5827 5828 5832 5835 5839 5841 5845 5848 5852 5855 5856 5859
5899 5896 5898 5896 5895 5896 5895 5894 5896 5888 5889 5891 5887 5887 5885 5885 5878 5874 5870 5864 5863 5862 5863 5860 5859 5859 5857 5853 5853 5849 5845 5836 5830 5825 5824 5824 5823 5821 5822 5824 5828 5833 5837 5840 5843 5847 5849 5851 5853
5896 5893 5894 5892 5892 5893 5894 5889 5892 5890 5883 5887 5882 5881 5884 5882 5877 5874 5868 5862 5863 5865 5865 5860 5858 5857 5854 5851 5849 5845 5840 5831 5826 5824 5821 5819 5818 5817 5818 5820 5823 5828 5832 5834 5838 5842 5844 5846 5849
5889 5890 5889 5889 5889 5890 5888 5886 5888 5886 5885 5880 5879 5880 5880 5877 5875 5873 5868 5865 5864 5863 5861 5857 5855 5855 5852 5848 5845 5842 5836 5827 5824 5822 5819 5817 5815 5815 5816 5818 5821 5824 5827 5830 5833 5838 5841 5844 5847
5884 5886 5886 5886 5885 5886 5883 5881 5882 5881 5879 5878 5877 5876 5874 5874 5872 5868 5867 5865 5863 5861 5858 5855 5855 5853 5848 5844 5843 5842 5837 5826 5824 5821 5817 5816 5814 5814 5815 5816 5819 5821 5823 5826 5828 5832 5836 5841 5843
5879 5881 5881 5881 5882 5881 5877 5875 5877 5877 5875 5875 5874 5877 5871 5866 5867 5865 5864 5866 5862 5860 5858 5856 5854 5848 5842 5843 5842 5840 5836 5827 5823 5820 5818 5816 5815 5814 5813 5813 5815 5817 5819 5820 5824 5829 5834 5836 5839
5875 5876 5877 5875 5876 5874 5873 5872 5871 5874 5879 5877 5873 5873 5868 5860 5860 5861 5864 5866 5864 5860 5858 5854 5848 5845 5843 5843 5841 5839 5835 5828 5824 5821 5818 5816 5814 5813 5812 5811 5812 5814 5816 5818 5821 5827 5830 5833 5835
5867 5873 5872 5871 5871 5870 5869 5866 5865 5870 5871 5867 5857 5847 5854 5854 5856 5862 5864 5862 5863 5859 5856 5851 5846 5844 5844 5845 5842 5839 5835 5829 5826 5823 5819 5816 5814 5812 5812 5812 5811 5812 5813 5816 5819 5823 5826 5828 5830
5864 5865 5868 5868 5866 5865 5866 5864 5861 5866 5867 5866 5858 5852 5854 5859 5860 5858 5861 5860 5861 5859 5856 5854 5851 5848 5846 5844 5842 5839 5835 5831 5827 5825 5821 5817 5815 5813 5812 5811 5811 5812 5812 5814 5816 5819 5822 5824 5826
5856 5858 5863 5863 5863 5861 5862 5863 5862 5862 5861 5860 5859 5860 5857 5858 5859 5856 5854 5856 5859 5857 5855 5853 5852 5849 5846 5843 5841 5838 5833 5830 5827 5825 5822 5819 5815 5813 5812 5811 5811 5811 5811 5813 5815 5817 5819 5821 5822
Wind_Speed
16 12 11 6 11 17 18 22 22 15 16 15 10 8 15 17 9 8 9 12 9 6 2 3 4 7 6 8 9 10 9 8 8 9 8 9 9 8 5 5 10 10 10 12 13 12 13 11 9
13 10 6 6 8 11 9 5 10 16 18 20 11 5 10 14 12 9 9 8 6 5 5 5 6 6 8 11 12 11 11 12 12 12 12 14 15 12 11 5 8 9 9 11 13 13 14 12 11
10 12 8 10 10 11 9 3 8 18 19 18 22 16 14 14 7 5 3 3 4 4 6 5 5 6 7 8 8 10 11 12 13 12 13 12 14 13 9 9 7 10 10 12 12 14 15 13 13
13 13 8 8 16 12 2 2 3 9 24 18 21 21 12 17 13 10 9 8 2 4 4 6 7 6 7 7 8 9 11 12 13 13 13 13 14 15 12 9 8 8 12 14 14 14 16 14 14
9 1 10 7 8 7 9 13 10 23 23 22 17 19 18 19 15 12 10 9 7 4 3 5 4 5 7 7 7 7 8 10 12 12 13 13 15 17 16 11 9 8 12 13 12 14 17 16 14
14 10 12 11 11 5 11 20 27 25 22 24 20 15 17 17 13 11 10 12 8 7 7 4 5 7 7 7 6 6 5 4 9 11 12 13 14 18 19 16 12 10 12 14 11 13 17 17 16
5 5 8 5 7 9 9 17 18 23 25 25 18 20 12 15 11 13 12 11 7 5 5 6 6 8 8 8 8 7 7 7 7 8 9 11 11 16 19 18 15 13 13 14 14 13 15 17 17
10 2 13 11 10 9 11 13 23 19 20 18 23 19 13 13 10 11 11 9 5 4 4 5 8 11 10 12 11 11 11 10 9 8 6 10 10 12 15 20 19 14 14 15 15 15 15 17 18
14 13 18 19 15 14 14 18 14 21 23 18 23 23 18 14 8 9 8 8 4 3 5 6 9 12 13 14 14 14 13 13 12 9 7 8 10 12 11 15 20 19 17 15 15 16 16 17 18
8 7 19 15 12 9 12 16 20 22 20 16 24 19 17 17 8 10 7 6 5 5 4 3 7 10 11 14 15 14 13 15 13 12 9 8 12 15 13 15 19 21 19 17 16 18 17 17 17
8 10 15 11 10 7 3 10 11 17 19 19 22 28 16 17 11 11 9 7 8 7 7 6 6 7 12 12 12 14 14 16 15 13 13 16 9 18 13 11 18 25 26 18 17 18 20 19 17
9 6 8 5 7 2 5 8 10 17 19 20 24 27 18 15 13 11 11 7 9 10 11 10 7 8 9 11 13 13 12 14 16 14 14 14 15 18 22 16 18 21 30 22 18 18 19 20 21
4 9 7 7 4 4 4 10 12 18 20 21 29 25 21 14 13 12 11 8 5 8 12 12 10 9 10 9 10 12 12 11 15 15 17 17 19 20 19 16 15 18 27 26 24 21 19 22 22
10 8 8 2 4 7 5 12 15 14 20 27 31 15 11 8 14 10 10 10 7 9 11 12 10 7 7 6 7 10 13 14 16 17 20 17 25 23 21 20 17 20 23 31 31 28 22 23 26
10 12 13 8 11 16 14 5 16 17 22 27 32 35 18 16 8 5 8 10 9 9 9 11 12 11 7 4 4 3 7 12 17 19 21 21 20 26 25 24 22 21 26 22 26 37 28 28 24
11 13 8 9 14 24 13 7 16 18 20 26 28 31 38 25 12 3 7 9 10 9 10 10 12 14 12 11 8 6 7 10 13 15 18 22 24 25 24 24 22 25 26 23 23 32 37 30 27
12 15 7 3 10 3 11 9 19 23 22 25 30 38 48 20 14 8 4 8 8 7 8 9 12 15 16 13 10 10 8 9 13 17 19 22 25 27 27 26 24 22 21 20 20 27 37 32 31
14 14 11 5 2 6 10 11 13 30 25 24 29 35 35 40 21 9 6 9 2 6 8 9 13 19 18 14 13 15 16 14 15 18 23 28 31 31 31 31 28 25 22 21 19 21 38 37 38
14 17 15 7 4 11 12 11 12 17 23 23 27 34 40 43 33 31 16 16 5 9 9 8 12 20 16 15 18 21 21 24 24 26 24 29 33 31 29 32 33 30 24 22 22 23 24 34 42
11 15 16 11 10 11 12 14 14 17 23 23 26 31 34 34 39 24 24 5 2 6 11 10 11 11 9 12 18 21 23 25 28 25 18 19 21 24 29 29 32 30 29 24 23 22 18 29 41
14 12 13 15 12 15 19 16 20 23 22 22 22 25 29 31 38 21 15 16 8 5 9 9 10 9 12 14 22 22 22 31 28 17 14 15 17 21 26 28 31 29 28 26 24 23 22 26 36
12 14 12 17 18 18 18 20 22 27 27 22 22 21 26 27 27 19 11 15 14 18 17 13 15 17 19 20 19 20 26 28 15 14 12 10 15 19 20 20 30 30 30 29 27 23 22 24 37
11 13 14 19 19 17 11 22 19 21 20 17 20 25 20 23 18 10 13 16 13 12 8 14 17 18 20 17 19 21 26 15 11 11 11 10 9 12 15 19 23 26 27 29 28 24 22 23 32
13 15 17 19 19 17 6 14 4 12 17 20 21 19 19 21 14 9 10 9 6 7 9 13 16 19 18 16 18 22 29 14 12 14 14 11 6 4 7 12 16 19 20 25 30 28 22 23 26
17 16 17 20 19 13 15 16 9 16 21 23 24 20 17 23 15 10 11 8 8 9 15 16 18 21 16 14 15 19 26 17 14 18 9 8 6 2 5 10 14 19 23 24 27 28 24 23 23
15 17 20 21 20 17 22 22 15 14 20 22 20 22 15 15 13 14 15 11 13 12 14 17 18 19 12 9 13 17 22 24 17 19 11 7 5 4 4 8 12 16 20 21 24 27 24 23 23
8 13 15 19 21 20 20 24 23 21 19 20 25 25 10 6 9 11 11 9 12 14 15 18 16 11 7 10 13 15 17 22 24 18 12 11 8 5 3 7 9 9 13 16 20 23 22 22 25
24 11 11 17 22 22 18 21 23 22 21 30 20 36 15 3 1 9 12 14 15 16 18 18 11 7 8 12 12 16 18 19 19 18 12 10 10 9 5 4 5 5 9 13 17 21 22 21 25
12 12 14 16 22 25 21 15 17 17 22 22 27 21 22 19 16 6 10 12 12 14 17 13 9 9 11 13 14 15 18 18 16 15 14 6 7 6 4 10 3 4 8 11 13 16 16 18 19
21 22 19 22 22 22 22 22 21 21 25 26 27 29 38 40 35 12 5 8 10 13 13 7 5 9 16 14 16 16 19 19 14 12 10 10 10 7 1 1 1 1 6 8 13 13 15 18 18
Wind_Direction
129 128 117 132 111 63 38 9 17 7 59 58 24 2 1 353 357 341 347 358 340 333 291 259 217 228 215 222 218 217 226 243 249 268 274 282 296 301 287 261 235 212 209 208 200 205 200 188 184
125 149 132 187 123 92 95 40 353 24 11 15 2 316 13 13 351 347 345 353 338 290 265 239 230 234 226 227 233 238 245 253 262 261 263 261 268 267 274 255 235 225 213 212 213 203 206 199 186
120 156 158 189 151 88 66 83 18 10 16 33 37 16 21 32 7 18 334 4 308 347 300 283 266 253 244 246 247 244 241 245 250 248 246 248 248 243 231 234 223 230 219 216 219 212 201 198 192
151 126 160 173 99 75 46 259 197 76 29 358 15 4 353 10 23 24 19 46 348 338 299 270 257 254 251 256 246 242 242 236 239 246 237 233 236 232 231 226 218 221 228 219 215 224 207 194 196
147 228 230 221 184 111 49 17 8 14 22 12 33 21 8 1 4 21 6 22 2 337 293 252 249 262 258 251 247 246 241 241 239 240 241 231 230 229 224 220 218 217 222 221 210 216 219 199 194
112 67 121 80 45 48 28 29 15 22 16 21 23 30 10 353 356 10 8 9 13 348 297 275 246 251 249 261 268 266 272 267 242 244 248 236 232 227 229 222 212 213 217 222 216 212 225 208 201
138 35 77 169 72 21 42 14 15 7 14 10 13 18 350 2 345 2 12 360 0 319 299 285 263 256 262 276 274 272 287 291 274 250 259 259 235 224 225 227 223 219 217 216 217 210 221 215 209
79 57 113 104 73 15 16 22 10 2 360 358 354 4 2 355 356 21 4 359 338 301 326 272 259 258 253 256 258 260 263 269 280 276 266 248 228 218 227 227 229 233 224 221 215 216 212 219 216
112 127 107 87 70 14 14 3 7 349 340 4 355 346 335 340 356 8 357 347 355 317 302 280 251 253 248 246 248 250 253 255 262 272 264 238 218 204 209 222 223 229 233 226 219 219 216 215 212
129 135 102 84 96 74 336 352 16 345 336 357 349 328 322 322 339 21 352 345 6 20 8 312 270 253 252 247 247 250 247 248 255 258 257 227 219 205 208 218 223 225 226 222 220 220 222 224 215
151 159 122 113 90 126 326 336 344 333 350 350 345 334 318 315 341 360 2 5 359 355 355 339 313 257 240 240 246 247 248 253 256 256 248 237 259 220 221 245 248 235 223 218 221 222 222 230 225
176 169 144 90 57 164 287 282 339 339 344 355 350 325 305 315 332 337 360 2 21 13 6 357 324 277 255 249 252 256 261 256 259 260 249 248 249 242 248 273 281 225 216 216 217 224 224 231 242
243 237 170 139 179 236 277 277 303 329 338 338 331 319 299 313 323 328 339 342 6 16 28 18 350 317 290 277 266 261 253 256 251 251 251 246 238 233 238 253 272 240 209 220 221 230 230 237 237
270 294 288 272 247 247 244 282 339 326 327 326 314 295 259 264 300 319 335 317 346 3 30 21 13 3 342 305 282 279 267 265 259 253 256 255 247 243 245 250 250 239 219 226 228 232 227 229 235
280 288 298 334 319 306 325 295 310 322 316 307 339 315 254 238 191 305 335 332 316 328 2 10 9 6 350 348 337 293 273 268 266 262 259 261 251 239 243 243 245 237 230 228 229 230 227 234 230
272 271 290 318 323 281 290 316 318 302 322 315 328 325 325 233 204 164 310 317 302 323 349 7 2 357 356 354 350 340 303 275 264 259 258 258 252 244 240 241 237 237 233 236 243 232 225 222 229
263 271 283 333 7 342 296 4 301 297 307 332 335 328 351 257 201 185 284 294 329 338 9 2 357 0 356 334 331 332 332 313 295 279 270 263 255 246 243 237 237 238 234 236 240 230 217 220 225
275 280 286 311 351 288 317 345 302 301 311 340 323 328 352 345 330 244 157 270 0 351 2 349 346 340 329 327 317 315 312 309 298 281 276 267 263 252 242 236 233 232 234 233 234 232 218 229 220
272 287 302 322 326 302 306 316 324 317 332 326 328 329 336 341 338 321 262 202 158 55 28 342 323 331 326 327 316 316 313 314 308 299 279 260 259 255 244 235 232 231 232 231 236 234 232 225 221
260 278 293 315 295 300 278 290 283 301 317 316 316 317 326 334 349 325 345 149 253 342 14 16 335 342 344 329 321 328 321 318 312 306 296 273 252 254 249 237 231 229 231 231 234 237 233 226 222
259 276 290 292 278 283 288 287 294 297 290 311 322 315 326 344 326 316 350 10 338 7 336 7 5 353 351 343 327 327 330 320 308 306 301 264 257 255 253 241 228 225 229 229 230 234 232 231 225
264 266 270 273 272 281 287 286 266 283 285 295 313 309 342 346 332 319 349 13 6 355 354 11 2 349 344 336 332 336 337 324 321 327 328 300 263 264 254 240 223 225 230 231 228 230 237 236 223
255 263 259 265 278 289 303 287 272 271 283 283 306 314 328 338 353 342 358 31 15 337 316 9 3 351 341 338 341 346 343 327 343 332 329 324 294 264 248 231 222 222 225 228 227 230 233 228 223
248 253 257 270 279 296 276 281 289 331 303 290 293 305 308 337 347 348 5 21 14 347 359 358 356 344 340 344 352 348 348 356 349 338 335 334 329 293 247 218 211 216 222 225 229 226 229 226 225
246 251 257 263 279 292 250 252 257 293 312 281 288 283 314 337 338 4 4 9 13 356 3 353 342 338 337 353 350 351 5 17 4 355 332 348 354 305 231 232 232 232 236 236 232 224 226 228 233
242 252 257 265 268 266 255 268 257 277 300 302 297 269 317 334 350 14 14 17 8 0 359 348 335 342 355 356 353 350 9 22 5 350 8 360 343 319 250 226 233 237 233 233 223 218 223 226 235
220 257 269 267 260 270 268 274 269 269 298 308 280 255 274 315 354 358 358 345 3 7 357 342 345 6 38 13 5 351 1 18 26 10 350 358 359 344 271 229 233 234 230 222 213 214 225 232 237
219 247 279 286 275 273 277 281 277 280 309 317 287 222 230 160 341 320 336 345 339 2 360 354 6 71 55 6 3 354 358 10 12 20 4 348 0 357 346 275 235 219 218 220 217 218 224 228 237
230 252 275 290 286 275 273 269 262 293 300 317 327 322 317 322 298 252 309 325 332 346 0 353 28 45 13 3 353 348 354 355 360 2 14 356 345 347 340 339 283 243 225 219 218 214 221 228 223
236 231 260 278 289 277 262 264 269 272 297 310 319 322 323 326 295 237 258 314 332 344 349 326 292 333 342 340 329 341 354 353 345 345 349 356 17 7 183 110 55 168 177 209 208 201 216 218 218